Location: Ackerson Creek
(37.8210°N, 119.8757°W)
Time: 15:44:53
(UTC+00:00)

Cosmos 1933 Rocket - Pass Details

Date: 13 April 2024
Orbit: 602 x 628 km, 82.5° (Epoch: 22 May)

Event Time Altitude Azimuth Distance (km) Brightness Sun altitude
Rises 12:50:45 0° 351° (N) 2,887 7.1 -7.6°
Reaches altitude 10° 12:52:59 10° 350° (N) 1,973 6.3 -7.2°
Maximum altitude 12:57:21 78° 265° (W) 626 3.5 -6.3°
Drops below altitude 10° 13:01:39 10° 179° (S) 1,945 6.0 -5.5°
Sets 13:03:50 0° 178° (S) 2,841 6.8 -5.1°
